Location: Home
(42.5358°N, 72.7383°W)
Time: 01:20:07
(UTC-05:00)

Vanguard 1 - Pass Details

Date: 08 December 2021
Orbit: 652 x 3830 km, 34.2° (Epoch: 21 January)

Event Time Altitude Azimuth Distance (km) Brightness Sun altitude
Rises 03:38:42 0° 279° (W) 7,922 - -37.7°
Reaches altitude 10° 03:44:20 10° 276° (W) 6,939 - -36.7°
Exits shadow 04:00:12 43° 244° (WSW) 4,369 12.8 -33.8°
Maximum altitude 04:05:47 50° 210° (SSW) 3,839 12.7 -32.7°
Drops below altitude 10° 04:20:27 10° 140° (SE) 4,902 14.1 -30.0°
Sets 04:23:39 0° 135° (SE) 5,547 14.6 -29.5°
